Resultados

800 Electronico
Fecha Serie Viento Presión Humedad Temperatura
16-09-2018 Final_A
Puesto Andanivel Nombre Dia Mes Año Pais Marca
01 Chiappe Madsen Fiorella 1 1 1996 GEFAM - 2.07.45 -
02 Borelli Mariana 30 10 1992 MALGO FMARP 2.07.85 -
03 Perez Manzini Maria Veronica 28 12 2001 MSIFA - 2.12.15 -
04 Perez Rocio 18 11 1994 ECOTF ARDA 2.12.28 -
05 Diogo Maria Ayelen 11 12 1991 EMAPM - 2.13.34 -
06 Guerrero Antonella 16 7 1996 MMFAM - 2.14.26 -
07 Macadam Ines 24 4 2001 CM8GG - 2.14.49 -
08 Farias Evelin Micaela 22 1 1996 FTTAF - 2.14.87 -
09 Luna Sambran Fedra Aldana 5 7 1995 FCMAX - 2.15.36 -
10 Ballesteros Shirley 31 1 1997 EBFAM - 2.15.60 -
11 Ortiz Micaela 30 12 1997 ECOTF ARDA 2.18.31 -
12 Giovacchini Maria Margarita 17 5 2001 FTTAF FAM 2.19.65 -
13 Delfina Olivero 12 7 1999 QUIRO - 2.21.19 -
14 Vidal Abril 23 10 1998 FTTAF - 2.22.68 -
15 Fairhurst Eugenia 9 3 2000 FCMAX - 2.23.40 -
16 Peloc Sonia Susana 21 9 1991 EMSAL - 2.29.59 -
17 Sanchez Jesica 28 6 1987 FTTAF - 2.30.08 -
18 Noguera Maria Laura 9 5 2001 CADAF - 2.32.13 -
19 Urquiza Marianella 17 6 1998 PGARI - 2.32.30 -
20 Suarez Camila Agostina 9 4 2001 EBFAM - 2.32.53 -
21 Maria Belen Perez Orue 28 8 1995 AAMTE - 2.32.65 -
22 Fernandez Johana 17 4 2000 JMCOR FMARP 2.37.03 -
23 Gomez Angela Sofia 24 5 1997 PGARI - 2.37.83 -
24 Borruso Milagros 8 3 2000 MUAVE - 2.38.20 -
25 Rodriguez Barbara 7 1 1980 EBFAM - 2.38.63 -
26 Fullaondo Echeverria Vannessa Lujan 20 2 1999 MAB - 2.39.16 -
27 Lazcano Manuela 2 9 1999 EMA3A 2.42.15 -
28 Pereyra Luciana 23 5 1998 AAPCH - 2.45.83 -
29 Moyano Erika 27 8 2000 MAB - 2.50.89 -
30 Duran Maira 18 4 1998 PGARI - 3.04.81 -
99 Burgos Daiana 11 8 2000 CMDB1 - DNS
99 Maldonado Valentina 8 5 2001 MSIFA - DNF